Weather History for Champaign, IL

Change the Weather History Date:

Monday, July 21, 2014

  Actual Average Record
Temperature  
Mean Temperature 72 °F 74 °F  
Max Temperature 84 °F 84 °F 97 °F (2011)
Min Temperature 59 °F 64 °F 53 °F (2000)
Degree Days  
Heating Degree Days 0 0  
Month to date heating degree days 5 0  
Since 1 June heating degree days 5 17  
Since 1 July heating degree days 5 0  
Cooling Degree Days 7 9  
Month to date cooling degree days 116 198  
Year to date cooling degree days 549 513  
Since 1 June cooling degree days 397 421  
Growing Degree Days 21 (Base 50)    
Moisture  
Dew Point 64 °F    
Average Humidity 77    
Maximum Humidity 100    
Minimum Humidity 54    
Precipitation  
Precipitation 0.00 in 0.16 in 2.93 in (2013)
Month to date precipitation 5.04 3.04  
Year to date precipitation 25.92 22.37  
Sea Level Pressure  
Sea Level Pressure 30.09 in    
Wind  
Wind Speed 5 mph (SE)    
Max Wind Speed 9 mph    
Max Gust Speed 22 mph    
Visibility 8 miles    
Events      
T = Trace of Precipitation, MM = Missing Value Source: NWS Daily Summary

Daily Weather History Graph

Daily Weather History Graph

Search for Another Location

Airport:

Trip Planner

Search our weather history database for the weather conditions in past years. The results will help you decide how hot, cold, wet, or windy it might be!

Date:

Astronomy

Jul. 21, 2014 Rise Set
Actual Time 5:41 AM CDT 8:16 PM CDT
Civil Twilight 5:10 AM CDT 8:48 PM CDT
Nautical Twilight 4:31 AM CDT 9:27 PM CDT
Astronomical Twilight 3:47 AM CDT 10:10 PM CDT
Moon 1:32 AM CDT (7/21) 3:59 PM CDT (7/21)
Length of Visible Light 15h 37m
Length of Day
14h 35m
Waning Crescent, 24% of the Moon is Illuminated
Jul 21
Waning Crescent
Jul 26
New
Aug 3
First Quarter
Aug 10
Full
Aug 17
Last Quarter

Hourly Weather History & Observations

Time (CDT) Temp. Heat Index Dew Point Humidity Pressure Visibility Wind Dir Wind Speed Gust Speed Precip Events Conditions
12:53 AM 64.0 °F - 62.1 °F 93% 30.05 in 7.0 mi East 3.5 mph - N/A   Clear
1:53 AM 64.0 °F - 62.1 °F 93% 30.05 in 6.0 mi Calm Calm - N/A   Clear
2:53 AM 62.1 °F - 61.0 °F 96% 30.05 in 5.0 mi ESE 4.6 mph - N/A   Clear
3:53 AM 61.0 °F - 60.1 °F 97% 30.06 in 4.0 mi ESE 4.6 mph - N/A   Clear
4:53 AM 61.0 °F - 59.0 °F 93% 30.07 in 5.0 mi ESE 4.6 mph - N/A   Clear
5:53 AM 60.1 °F - 59.0 °F 96% 30.10 in 2.5 mi Calm Calm - N/A   Clear
6:29 AM 62.1 °F - 60.1 °F 93% 30.12 in 3.0 mi East 3.5 mph - N/A   Clear
6:53 AM 63.0 °F - 61.0 °F 93% 30.12 in 4.0 mi ESE 3.5 mph - N/A   Clear
7:53 AM 69.1 °F - 64.9 °F 87% 30.13 in 7.0 mi Calm Calm - N/A   Clear
8:53 AM 73.0 °F - 63.0 °F 71% 30.13 in 10.0 mi SSE 4.6 mph - N/A   Clear
9:53 AM 75.9 °F - 64.0 °F 67% 30.12 in 10.0 mi SSW 5.8 mph - N/A   Clear
10:53 AM 79.0 °F - 64.0 °F 60% 30.12 in 10.0 mi South 5.8 mph - N/A   Clear
11:53 AM 80.1 °F 81.5 °F 63.0 °F 56% 30.12 in 10.0 mi South 4.6 mph - N/A   Partly Cloudy
12:53 PM 80.1 °F 81.9 °F 64.9 °F 60% 30.11 in 10.0 mi South 5.8 mph - N/A   Scattered Clouds
1:53 PM 81.0 °F 82.7 °F 64.9 °F 58% 30.10 in 10.0 mi SW 6.9 mph - N/A   Scattered Clouds
3:53 PM 82.9 °F 85.0 °F 66.0 °F 56% 30.08 in 10.0 mi Variable 4.6 mph - N/A   Scattered Clouds
4:53 PM 82.9 °F 85.0 °F 66.0 °F 56% 30.07 in 10.0 mi SSW 6.9 mph - N/A   Scattered Clouds
5:53 PM 82.0 °F 83.8 °F 64.9 °F 56% 30.07 in 10.0 mi Variable 4.6 mph - N/A   Clear
6:53 PM 81.0 °F 83.3 °F 66.9 °F 62% 30.07 in 10.0 mi SE 3.5 mph - N/A   Clear
7:53 PM 75.0 °F - 69.1 °F 82% 30.07 in 10.0 mi ESE 5.8 mph - N/A   Clear
8:53 PM 71.1 °F - 68.0 °F 90% 30.08 in 9.0 mi ESE 5.8 mph - N/A   Clear
9:53 PM 70.0 °F - 66.9 °F 90% 30.09 in 8.0 mi SE 4.6 mph - N/A   Clear
10:53 PM 69.1 °F - 64.9 °F 87% 30.08 in 9.0 mi SSE 4.6 mph - N/A   Clear
11:53 PM 69.1 °F - 64.9 °F 87% 30.07 in 8.0 mi SE 3.5 mph - N/A   Clear